Location: Canet
(43.3261°N, 5.3723°E)
Time: 19:36:57
(UTC+00:00)

Cosmos 1812 Rocket - Pass Details

Date: 24 January 2021
Orbit: 604 x 633 km, 82.5° (Epoch: 07 March)

Event Time Altitude Azimuth Distance (km) Brightness Sun altitude
Rises 18:15:17 0° 351° (N) 2,903 7.0 -17.3°
Reaches altitude 10° 18:17:32 10° 352° (N) 1,988 6.1 -17.7°
Maximum altitude 18:21:57 87° 82° (E) 619 3.4 -18.5°
Drops below altitude 10° 18:26:17 10° 172° (S) 1,956 6.1 -19.3°
Sets 18:28:28 0° 173° (S) 2,852 7.0 -19.7°
